Regional Weather Roundup
Issued by NWS

Home | Current Version | Previous Version | Graphics & Text | Print | Product List | Glossary On
Versions: 1 2 3 4 5 6 7 8 9 10 11 12 13 14 15 16 17 18 19 20 21 22 23 24 25 26 27 28 29 30 31 32 33 34 35 36 37 38 39 40 41 42 43 44 45 46 47 48 49 50
000
ASUS43 KOAX 220710
RWRNE

WEATHER ROUNDUP FOR NEBRASKA
NATIONAL WEATHER SERVICE OMAHA NE
200 AM CDT SUN APR 22 2018

NOTES: SATELLITE DATA IS BEING USED TO AUGMENT CLOUD COVER ABOVE
       12000 FEET.
       "FAIR" INDICATES FEW OR NO CLOUDS BELOW 12,000 FEET WITH NO
       SIGNIFICANT WEATHER AND/OR OBSTRUCTIONS TO VISIBILITY.


NEZ001>004-019>022-054>056-220800-
NEBRASKA PANHANDLE

CITY           SKY/WX    TMP DP  RH WIND       PRES   REMARKS
SCOTTSBLUFF    CLEAR     34  34 100 SE10      30.17F WCI  26
ALLIANCE       CLOUDY    37  37 100 S15       30.18S WCI  28
CHADRON        CLEAR     37  34  89 SW7       30.16F WCI  32
GORDON         FAIR      34  32  94 S5        30.18S WCI  30
KIMBALL        FOG       37  37  99 S9        30.19S VSB 3/4 WCI  30
SIDNEY         CLOUDY    37  33  85 S9        30.19F WCI  30
$$

NEZ057>060-069>072-079>082-220800-
SOUTHWEST NEBRASKA

CITY           SKY/WX    TMP DP  RH WIND       PRES   REMARKS
NORTH PLATTE   CLOUDY    41  38  89 SE7       30.24F
IMPERIAL       CLOUDY    39  38  96 NE5       30.22S
LEXINGTON      CLOUDY    41  37  86 E6        30.24F
MCCOOK         CLOUDY    40  40 100 E5        30.23F
OGALLALA       CLOUDY    36  35  97 CALM      30.22S FOG
$$

NEZ005>010-023>029-035>040-094-220800-
NORTH CENTRAL NEBRASKA

CITY           SKY/WX    TMP DP  RH WIND       PRES   REMARKS
VALENTINE      PTCLDY    38  35  89 S6        30.24S WCI  33
AINSWORTH      CLOUDY    39  37  93 S3        30.25S
BROKEN BOW     CLOUDY    41  37  86 SE3       30.24F
O`NEILL        CLOUDY    43  38  82 CALM      30.26F
ORD            CLOUDY    40  37  89 CALM      30.24F
THEDFORD       CLOUDY    38  36  92 SE3       30.25S
$$

NEZ041-046>049-061>064-073>077-083>087-220800-
SOUTH CENTRAL NEBRASKA

CITY           SKY/WX    TMP DP  RH WIND       PRES   REMARKS
GRAND ISLAND   CLOUDY    41  39  93 W6        30.24F FOG
AURORA         MOCLDY    40  39  96 NW7       30.22F
HASTINGS       PTCLDY    40  39  97 NW6       30.23F FOG
HEBRON         CLOUDY    43  41  93 NW3       30.21F
HOLDREGE       CLOUDY    40  40 100 NE5       30.23F FOG
KEARNEY        CLOUDY    39  38  96 E3        30.24F
YORK             N/A     41  41 100 NW7       30.23F
$$

NEZ011>018-030>034-042>045-220800-
NORTHEAST NEBRASKA

CITY           SKY/WX    TMP DP  RH WIND       PRES   REMARKS
NORFOLK        CLOUDY    42  35  76 CALM      30.24F
ALBION         CLOUDY    42  38  84 N5        30.25F
BLAIR          CLOUDY    46  29  51 NE8       30.22F
COLUMBUS       PTCLDY    41  34  76 NW3       30.24F
FREMONT        PTCLDY    45  32  59 CALM      30.24F
TEKAMAH        CLOUDY    41  31  67 NW8       30.25S
WAYNE          CLOUDY    39  38  97 NE5       30.26F
$$

NEZ050>053-065>068-078-088>093-220800-
SOUTHEAST NEBRASKA

CITY           SKY/WX    TMP DP  RH WIND       PRES   REMARKS
LINCOLN        CLOUDY    42  34  73 N8        30.22F
OMAHA EPPLEY   CLOUDY    51  29  42 E15       30.22F
BEATRICE       CLOUDY    45  39  78 NW3       30.19F
FALLS CITY     CLOUDY    49  32  52 N8        30.17F
NEBRASKA CITY  CLOUDY    50  29  45 E8        30.19F
PLATTSMOUTH    CLOUDY    49  29  46 E10       30.21F
$$

NEZ044-045-051>053-067-220800-
OMAHA AREA

CITY           SKY/WX    TMP DP  RH WIND       PRES   REMARKS
OMAHA EPPLEY   CLOUDY    51  29  42 E15       30.22F
BLAIR          CLOUDY    46  29  51 NE8       30.22F
FREMONT        PTCLDY    45  32  59 CALM      30.24F
MILLARD        MOCLDY    52  30  42 CALM      30.22F
OFFUTT AFB     MOCLDY    49  28  44 NE7       30.20F
PLATTSMOUTH    CLOUDY    49  29  46 E10       30.21F
WAHOO          FAIR      42  31  65 N8        30.23F
$$



USA.gov is the U.S. government's official web portal to all federal, state and local government web resources and services.